Hailey, ID

10:24 AM MDT on April 19, 2018 (GMT -0600)
Friedman Memorial

Weather History for KSUN - February, 2013

Change the Weather History Date:

Monday, February 4, 2013

  Actual Average Record
Temperature  
Mean Temperature 28 °F -  
Max Temperature 35 °F 35 °F 51 °F (2018)
Min Temperature 21 °F 14 °F 0 °F (2014)
Degree Days  
Heating Degree Days 37    
Moisture  
Dew Point 26 °F    
Average Humidity 90    
Maximum Humidity 100    
Minimum Humidity 64    
Precipitation  
Precipitation 0.00 in - - ()
Sea Level Pressure  
Sea Level Pressure 30.12 in    
Wind  
Wind Speed 5 mph (NNW)    
Max Wind Speed 12 mph    
Max Gust Speed -    
Visibility 10 miles    
Events      
Averages and records for this station are not official NWS values.
T = Trace of Precipitation, MM = Missing Value Source: NWS Daily Summary

Daily Weather History Graph

Daily Weather History Graph

Search for Another Location

Airport or City:

Astronomy

Feb. 04, 2013 Rise Set
Actual Time 7:49 AM MST 5:53 PM MST
Civil Twilight 7:19 AM MST 6:23 PM MST
Nautical Twilight 6:45 AM MST 6:57 PM MST
Astronomical Twilight 6:12 AM MST 7:30 PM MST
Moon 2:32 AM MST (2/4) 12:17 PM MST (2/4)
Length of Visible Light 11h 04m
Length of Day
10h 03m
Last Quarter, 36% of the Moon is Illuminated
Feb 4
Last Quarter
Feb 10
New
Feb 17
First Quarter
Feb 25
Full
Mar 4
Last Quarter

Hourly Weather History & Observations

Time (MST) Temp. Windchill Dew Point Humidity Pressure Visibility Wind Dir Wind Speed Gust Speed Precip Events Conditions
12:15 AM 28.4 °F 23.3 °F 26.6 °F 93% 30.16 in 10.0 mi NW 4.6 mph - N/A   Overcast
12:55 AM 26.6 °F 21.2 °F 26.6 °F 100% 30.15 in 7.0 mi WNW 4.6 mph - N/A   Overcast
1:15 AM 26.6 °F 21.2 °F 26.6 °F 100% 30.15 in 7.0 mi NNW 4.6 mph - N/A   Overcast
1:35 AM 26.6 °F 21.2 °F 26.6 °F 100% 30.15 in 7.0 mi NW 4.6 mph - N/A   Overcast
1:55 AM 26.6 °F 21.2 °F 26.6 °F 100% 30.15 in 10.0 mi NNW 4.6 mph - N/A   Overcast
2:15 AM 26.6 °F - 24.8 °F 93% 30.15 in 10.0 mi Calm Calm - N/A   Overcast
4:15 AM 24.8 °F 19.1 °F 23.0 °F 93% 30.15 in 10.0 mi NNW 4.6 mph - N/A   Overcast
4:35 AM 24.8 °F 19.1 °F 23.0 °F 93% 30.14 in 10.0 mi NW 4.6 mph - N/A   Overcast
4:55 AM 24.8 °F 19.1 °F 23.0 °F 93% 30.14 in 10.0 mi NNW 4.6 mph - N/A   Overcast
5:15 AM 24.8 °F 17.9 °F 23.0 °F 93% 30.14 in 10.0 mi NW 5.8 mph - N/A   Overcast
5:35 AM 23.0 °F 12.4 °F 21.2 °F 93% 30.13 in 10.0 mi NW 10.4 mph - N/A   Overcast
5:55 AM 23.0 °F 12.4 °F 19.4 °F 86% 30.13 in 10.0 mi NW 10.4 mph - N/A   Mostly Cloudy
6:51 AM 21.2 °F 14.9 °F 17.6 °F 86% 30.13 in 10.0 mi NNW 4.6 mph - N/A   Scattered Clouds
7:47 AM 21.2 °F 11.7 °F 17.6 °F 86% 30.13 in 10.0 mi NW 8.1 mph - N/A   Mostly Cloudy
8:47 AM 21.2 °F 13.6 °F 17.6 °F 86% 30.13 in 10.0 mi WNW 5.8 mph - N/A   Mostly Cloudy
9:47 AM 24.8 °F - 17.6 °F 74% 30.13 in 10.0 mi Calm Calm - N/A   Scattered Clouds
10:47 AM 28.4 °F 22.2 °F 17.6 °F 64% 30.14 in 10.0 mi ESE 5.8 mph - N/A   Scattered Clouds
11:47 AM 30.2 °F 22.6 °F 26.6 °F 86% 30.15 in 10.0 mi ESE 8.1 mph - N/A   Mostly Cloudy
12:55 PM 32.0 °F 24.8 °F 28.4 °F 87% 30.11 in 10.0 mi SE 8.1 mph - N/A   Scattered Clouds
1:47 PM 33.8 °F 27.0 °F 28.4 °F 81% 30.11 in 10.0 mi SE 8.1 mph - N/A   Scattered Clouds
2:47 PM 35.6 °F 28.0 °F 30.2 °F 81% 30.07 in 10.0 mi SE 10.4 mph - N/A   Scattered Clouds
3:47 PM 35.6 °F 27.5 °F 30.2 °F 81% 30.08 in 10.0 mi SE 11.5 mph - N/A   Scattered Clouds
5:47 PM 33.8 °F 28.6 °F 30.2 °F 87% 30.08 in 10.0 mi ESE 5.8 mph - N/A   Scattered Clouds
7:47 PM 32.0 °F 28.7 °F 28.4 °F 87% 30.08 in 10.0 mi NW 3.5 mph - N/A   Mostly Cloudy
8:47 PM 32.0 °F - 30.2 °F 93% 30.08 in 10.0 mi Calm Calm - N/A   Overcast
9:47 PM 32.0 °F - 30.2 °F 93% 30.09 in 10.0 mi Calm Calm - N/A   Overcast
10:15 PM 32.0 °F - 30.2 °F 93% 30.10 in 10.0 mi Calm Calm - N/A   Overcast
10:35 PM 32.0 °F - 30.2 °F 93% 30.09 in 10.0 mi Calm Calm - N/A   Overcast
10:47 PM 32.0 °F - 30.2 °F 93% 30.09 in 10.0 mi Calm Calm - N/A   Overcast
10:55 PM 32.0 °F 28.7 °F 30.2 °F 93% 30.09 in 10.0 mi NNE 3.5 mph - N/A   Overcast
11:15 PM 32.0 °F 28.7 °F 30.2 °F 93% 30.09 in 10.0 mi NW 3.5 mph - N/A   Overcast
11:35 PM 32.0 °F 27.5 °F 30.2 °F 93% 30.09 in 10.0 mi NW 4.6 mph - N/A   Overcast
11:55 PM 32.0 °F 26.4 °F 30.2 °F 93% 30.08 in 10.0 mi NNW 5.8 mph - N/A   Overcast